www.pogodaiklimat.ru

Погода и климат >> Архив погоды >> Япония >> Мито


ПОГОДА в Мито

  • Прогноз погоды в Мито
  • Монитор погоды в Мито

АРХИВ ПОГОДЫ в Мито

Время (UTC), дата Ветер
(напр.,м/с)
 
Видим.   Явления Облачность Т
(С)
Тd
(С)
f
(%)
Тe
(С)
Тes
(С)
Комфортность P
(гПа)
Po
(гПа)
Тmin
(С)
Tmax
(С)
R
(мм)
R24
(мм)
S
(см)
13 18.06 В 1 13 км н/о +20.8 +19.1 90 +26 +26 душно 1011.0 1007.4
14 18.06 В 2 19 км н/о +20.5 +19.0 91 +25 +25 комфорт 1010.9 1007.3
15 18.06 С 1 19 км н/о +20.5 +19.0 91 +26 +26 душно 1010.6 1007.0
16 18.06 С 1 13 км н/о +20.0 +19.0 94 +24 +24 комфорт 1010.1 1006.5
17 18.06 СВ 1 13 км н/о +19.9 +19.1 95 +25 +25 комфорт 1009.6 1006.0
18 18.06 В 2 15 км н/о +20.0 +19.0 94 +24 +24 комфорт 1009.4 1005.8
19 18.06 В 1 8000 м дымка н/о +20.2 +19.2 94 +25 +25 комфорт 1009.5 1005.9
20 18.06 В 1 13 км н/о +20.1 +19.1 94 +25 +25 комфорт 1009.6 1006.0
21 18.06 В 2 8000 м дымка н/о +20.4 +18.9 91 +25 +25 комфорт 1009.3 1005.7
22 18.06 СВ 3 14 км н/о +21.5 +18.7 84 +26 +26 душно 1008.9 1005.3
23 18.06 В 2 20 км н/о +23.5 +17.5 69 +27 +27 душно 1008.8 1005.2
00 19.06 Ю 2 20 км н/о +24.8 +17.0 62 +29 +29 душно 1008.3 1004.8 +19.7
01 19.06 Ю 2 20 км н/о +24.8 +16.8 61 +28 +28 жарко 1008.0 1004.5
02 19.06 В 4 20 км н/о +24.9 +17.6 64 +29 +29 душно 1007.4 1003.9
03 19.06 В 4 20 км н/о +26.7 +17.2 56 +31 +31 душно 1006.6 1003.1
04 19.06 В 3 20 км н/о +27.4 +18.4 58 +32 +32 очень
душно
1005.7 1002.2
05 19.06 В 3 20 км н/о +26.8 +18.1 59 +31 +31 душно 1005.2 1001.7
06 19.06 В 4 20 км н/о +26.0 +17.1 58 +30 +30 душно 1004.7 1001.2
07 19.06 В 5 20 км н/о +25.8 +17.5 60 +30 +30 душно 1004.6 1001.1
08 19.06 ЮВ 3 20 км н/о +26.1 +18.0 61 +31 +31 очень
душно
1004.5 1001.0
09 19.06 В 2 20 км н/о +25.3 +18.3 65 +30 +30 душно 1004.5 1001.0
10 19.06 В 2 20 км н/о +23.7 +19.2 76 +29 +29 душно 1004.9 1001.4
11 19.06 СВ 5 20 км н/о +22.0 +19.0 83 +27 +27 душно 1006.2 1002.6
12 19.06 СВ 3 20 км н/о +21.6 +18.0 80 +26 +26 душно 1006.6 1003.0 +27.6
13 19.06 СВ 4 16 км слаб. дождь н/о +20.7 +18.7 88 +25 +25 комфорт 1007.1 1003.5
14 19.06 С 2 11 км слаб. дождь н/о +20.4 +19.1 92 +25 +25 комфорт 1006.9 1003.3
15 19.06 С 2 15 км слаб. дождь н/о +20.3 +18.8 91 +25 +25 комфорт 1006.1 1002.5
16 19.06 С 2 10 км в посл. час дождь н/о +19.7 +18.7 94 +23 +23 комфорт 1005.7 1002.1
17 19.06 СЗ 1 10 км н/о +19.9 +18.9 94 +24 +24 комфорт 1005.4 1001.8
18 19.06 СВ 2 10 км {дождь} н/о +20.1 +18.6 91 +24 +24 комфорт 1005.2 1001.6 0.0
19 19.06 СВ 2 7000 м дымка н/о +19.8 +18.6 93 +23 +23 комфорт 1005.3 1001.7
20 19.06 СВ 2 6000 м дымка н/о +19.9 +18.6 92 +24 +24 комфорт 1005.5 1001.9
21 19.06 СВ 3 14 км н/о +20.1 +18.2 89 +24 +24 комфорт 1005.8 1002.2
22 19.06 СВ 4 18 км н/о +20.6 +17.6 83 +24 +24 комфорт 1006.2 1002.6
23 19.06 СВ 3 20 км н/о +21.7 +17.7 78 +26 +26 душно 1006.4 1002.8
00 20.06 СВ 4 20 км н/о +23.5 +17.5 69 +27 +27 душно 1006.6 1003.0 +19.7 0.0
01 20.06 В 3 20 км н/о +23.6 +17.4 68 +27 +27 жарко 1006.6 1003.0
02 20.06 СВ 3 20 км н/о +25.3 +18.5 66 +30 +30 душно 1006.5 1003.0
03 20.06 В 3 20 км н/о +25.5 +18.4 65 +30 +30 душно 1006.3 1002.8
04 20.06 В 4 20 км н/о +25.3 +18.0 64 +30 +30 душно 1006.1 1002.6
05 20.06 В 4 20 км н/о +24.3 +18.0 68 +29 +29 душно 1005.9 1002.4
06 20.06 В 5 20 км н/о +23.7 +17.9 70 +28 +28 душно 1005.6 1002.1
07 20.06 В 4 20 км н/о +23.7 +18.4 72 +28 +28 душно 1005.7 1002.2
08 20.06 В 5 20 км н/о +22.6 +18.2 76 +28 +28 душно 1006.4 1002.8
09 20.06 В 5 20 км н/о +21.1 +17.5 80 +25 +25 комфорт 1007.0 1003.4
10 20.06 В 4 20 км н/о +20.5 +17.7 84 +24 +24 комфорт 1007.8 1004.2
11 20.06 В 3 20 км н/о +20.2 +18.0 87 +24 +24 комфорт 1008.3 1004.7
12 20.06 В 2 20 км н/о +20.2 +18.0 87 +24 +24 комфорт 1009.2 1005.6 +26.3
13 20.06 В 2 20 км н/о +20.5 +18.3 87 +25 +25 комфорт 1009.5 1005.9
15 20.06 СВ 2 12 км н/о +20.6 +18.4 87 +25 +25 комфорт 1009.5 1005.9
16 20.06 С 1 15 км в посл. час дождь н/о +20.5 +18.5 88 +26 +26 душно 1009.6 1006.0
17 20.06 СВ 2 17 км в посл. час дождь н/о +20.3 +18.1 87 +25 +25 комфорт 1009.7 1006.1
18 20.06 С 2 15 км в посл. час дождь н/о +20.0 +18.1 89 +24 +24 комфорт 1009.6 1006.0 0.0
19 20.06 С 1 14 км н/о +20.0 +18.1 89 +24 +24 комфорт 1009.7 1006.1
20 20.06 С 1 14 км н/о +20.1 +18.1 88 +24 +24 комфорт 1010.0 1006.4
21 20.06 СВ 1 12 км н/о +20.5 +18.1 86 +25 +25 комфорт 1010.2 1006.6
22 20.06 В 2 15 км н/о +21.0 +18.8 87 +26 +26 душно 1010.5 1006.9
23 20.06 В 3 13 км н/о +20.9 +18.7 87 +26 +26 душно 1010.8 1007.2
00 21.06 В 3 10 км н/о +21.1 +19.0 88 +25 +25 комфорт 1010.6 1007.0 +19.8 0.0
01 21.06 В 3 12 км н/о +21.8 +19.4 86 +27 +27 душно 1010.6 1007.0
02 21.06 В 3 11 км н/о +22.6 +19.8 84 +29 +29 очень
душно
1010.4 1006.8
03 21.06 В 3 14 км н/о +23.0 +19.8 82 +30 +30 очень
душно
1010.3 1006.7
04 21.06 В 4 20 км в посл. час дождь н/о +23.6 +20.2 81 +29 +29 душно 1009.8 1006.2
05 21.06 В 4 20 км в посл. час дождь н/о +25.1 +20.4 75 +31 +31 очень
душно
1009.3 1005.8
06 21.06 В 4 20 км {дождь} н/о +24.5 +20.0 76 +30 +30 очень
душно
1009.0 1005.5 0.0
07 21.06 ЮВ 3 20 км н/о +24.5 +20.2 77 +30 +30 очень
душно
1008.6 1005.1
08 21.06 В 3 20 км н/о +23.9 +20.0 79 +29 +29 душно 1008.7 1005.1
09 21.06 В 3 20 км н/о +23.3 +19.5 79 +30 +30 очень
душно
1009.0 1005.4
10 21.06 ЮВ 2 11 км н/о +23.1 +19.1 78 +29 +29 очень
душно
1009.2 1005.6
11 21.06 ЮВ 2 7000 м дымка н/о +22.9 +18.7 77 +29 +29 очень
душно
1009.6 1006.0
12 21.06 ЮВ 3 7000 м дымка н/о +22.4 +19.2 82 +28 +28 душно 1010.0 1006.4 +25.2 0.0
13 21.06 Ю 2 20 км н/о +22.4 +19.4 83 +28 +28 душно 1010.3 1006.7
15 21.06 ЮВ 2 4700 м дымка н/о +21.9 +19.3 85 +27 +27 душно 1009.6 1006.0
16 21.06 ЮВ 2 4900 м дымка н/о +21.4 +19.3 88 +26 +26 душно 1009.1 1005.5
17 21.06 ЮВ 2 8000 м дымка н/о +21.2 +19.5 90 +26 +26 душно 1008.7 1005.1
18 21.06 В 1 20 км н/о +21.4 +18.8 85 +26 +26 душно 1008.6 1005.0
19 21.06 В 2 20 км н/о +20.9 +18.3 85 +26 +26 душно 1008.4 1004.8
20 21.06 СВ 1 20 км н/о +20.6 +18.6 88 +26 +26 душно 1008.3 1004.7
21 21.06 В 2 8000 м дымка н/о +21.0 +18.9 88 +26 +26 душно 1008.2 1004.6
22 21.06 В 2 4500 м дымка н/о +22.0 +19.6 86 +28 +28 душно 1008.1 1004.5
23 21.06 В 3 8000 м дымка н/о +22.8 +19.8 83 +29 +29 очень
душно
1007.5 1003.9
00 22.06 ЮВ 3 11 км слаб. дождь н/о +23.2 +19.6 80 +30 +30 очень
душно
1007.1 1003.5 +20.3 0.0
01 22.06 В 4 20 км в посл. час дождь н/о +23.8 +19.7 78 +29 +29 душно 1006.5 1003.0
02 22.06 В 4 20 км н/о +23.9 +19.8 78 +29 +29 душно 1006.2 1002.7
03 22.06 В 4 20 км слаб. дождь н/о +24.3 +19.2 73 +29 +29 душно 1005.6 1002.1
04 22.06 В 4 20 км слаб. дождь н/о +23.8 +19.1 75 +29 +29 душно 1004.8 1001.3
05 22.06 В 5 20 км слаб. дождь н/о +22.8 +19.6 82 +29 +29 очень
душно
1004.3 1000.7
06 22.06 В 4 20 км слаб. дождь н/о +22.6 +20.2 86 +29 +29 очень
душно
1003.8 1000.2 0.0
07 22.06 СВ 4 20 км слаб. дождь н/о +22.5 +19.5 83 +29 +29 очень
душно
1003.4 999.8
08 22.06 СВ 4 20 км в посл. час дождь н/о +22.4 +19.4 83 +28 +28 душно 1003.2 999.6
09 22.06 СВ 4 20 км в посл. час дождь н/о +22.3 +19.7 85 +28 +28 душно 1003.2 999.6
10 22.06 СВ 4 20 км в посл. час дождь н/о +21.7 +19.8 89 +27 +27 душно 1003.3 999.7
11 22.06 С 4 16 км слаб. дождь н/о +21.5 +19.6 89 +27 +27 душно 1003.7 1000.1
12 22.06 С 3 20 км в посл. час дождь н/о +21.3 +19.6 90 +26 +26 душно 1003.8 1000.2 +25.0 0.0
13 22.06 С 2 20 км н/о +20.8 +19.3 91 +26 +26 душно 1003.1 999.5
14 22.06 СЗ 2 20 км н/о +20.6 +18.9 90 +25 +25 комфорт 1003.1 999.5
15 22.06 СЗ 2 20 км н/о +20.0 +19.0 94 +24 +24 комфорт 1002.9 999.3
16 22.06 С 2 20 км н/о +20.1 +18.4 90 +24 +24 комфорт 1002.9 999.3
17 22.06 С 2 20 км н/о +20.0 +17.8 87 +24 +24 комфорт 1002.9 999.3
18 22.06 СЗ 1 20 км н/о +20.0 +17.6 86 +24 +24 комфорт 1003.5 999.9
19 22.06 СЗ 2 16 км н/о +19.7 +17.5 87 +23 +23 комфорт 1003.8 1000.2
20 22.06 СЗ 2 4700 м дымка н/о +19.9 +17.3 85 +23 +23 комфорт 1004.0 1000.4
21 22.06 С 1 15 км н/о +19.6 +17.7 89 +24 +24 комфорт 1004.7 1001.1
22 22.06 С 2 4300 м дымка н/о +20.5 +17.7 84 +25 +25 комфорт 1005.4 1001.8
23 22.06 СВ 1 14 км н/о +21.1 +17.7 81 +25 +25 комфорт 1005.9 1002.3
00 23.06 В 2 2400 м дымка н/о +21.9 +17.9 78 +27 +27 душно 1005.8 1002.2 +19.3
01 23.06 В 3 20 км н/о +21.9 +18.5 81 +27 +27 душно 1006.0 1002.4
02 23.06 В 3 20 км н/о +21.6 +18.4 82 +26 +26 душно 1006.0 1002.4
03 23.06 В 4 20 км н/о +22.2 +17.8 76 +27 +27 душно 1006.1 1002.5
04 23.06 В 5 20 км н/о +21.8 +17.8 78 +26 +26 душно 1005.7 1002.1
05 23.06 СВ 5 20 км н/о +21.1 +17.1 78 +25 +25 комфорт 1005.4 1001.8
06 23.06 В 4 20 км в посл. час дождь н/о +20.7 +17.3 81 +24 +24 комфорт 1005.8 1002.2 0.0
07 23.06 В 5 20 км слаб. дождь н/о +20.1 +17.5 85 +23 +23 комфорт 1005.9 1002.3
08 23.06 СВ 4 20 км в посл. час дождь н/о +20.2 +16.8 81 +23 +23 комфорт 1006.4 1002.8
09 23.06 СВ 4 20 км в посл. час дождь н/о +20.0 +16.8 82 +23 +23 комфорт 1006.6 1003.0
10 23.06 СВ 4 20 км н/о +19.9 +16.9 83 +23 +23 комфорт 1006.5 1002.9
11 23.06 СВ 4 20 км н/о +19.6 +16.6 83 +22 +22 комфорт 1007.7 1004.1
12 23.06 СВ 3 20 км {дождь} н/о +19.8 +16.7 82 +23 +23 комфорт 1008.8 1005.2 +22.5 0.0
13 23.06 СВ 3 400 м туман н/о +19.7 +16.6 82 +22 +22 комфорт 1008.7 1005.1
14 23.06 СВ 3 н/о н/о +19.4 +16.6 84 +22 +22 комфорт 1008.9 1005.3
15 23.06 СВ 3 20 км {туман} н/о +19.2 +16.4 84 +21 +21 комфорт 1008.9 1005.3
16 23.06 СВ 4 20 км в посл. час дождь н/о +19.1 +16.3 84 +21 +21 комфорт 1008.5 1004.9
17 23.06 СВ 3 20 км н/о +18.8 +16.1 84 +20 +20 1008.7 1005.1
18 23.06 СВ 4 20 км {дождь, туман} н/о +18.4 +15.7 84 +19 +19 1009.2 1005.6 0.0
19 23.06 СВ 4 15 км слаб. дождь н/о +18.0 +16.3 90 +18 +18 1009.2 1005.6
20 23.06 СВ 3 10 км слаб. дождь н/о +17.6 +16.3 92 +18 +18 1009.6 1006.0
21 23.06 СВ 4 10 км слаб. дождь н/о +17.4 +16.3 93 +17 +17 1009.6 1006.0
22 23.06 СВ 3 11 км слаб. дождь н/о +17.7 +16.7 94 +18 +18 1010.2 1006.6
23 23.06 СВ 4 8000 м слаб. дождь н/о +17.7 +16.7 94 +18 +18 1011.4 1007.7
00 24.06 СВ 5 15 км слаб. дождь н/о +17.6 +16.6 94 +17 +17 1010.1 1006.5 +17.4 4
01 24.06 СВ 6 20 км в посл. час дождь н/о +18.0 +16.5 91 +17 +17 1009.9 1006.3
02 24.06 СВ 5 20 км н/о +18.9 +16.3 85 +20 +20 1010.1 1006.5
03 24.06 С 3 9000 м слаб. дождь н/о +18.8 +16.2 85 +20 +20 1010.9 1007.3
04 24.06 С 3 14 км слаб. дождь н/о +19.7 +17.5 87 +23 +23 комфорт 1010.6 1007.0
05 24.06 СВ 3 20 км слаб. дождь н/о +20.1 +17.5 85 +23 +23 комфорт 1010.1 1006.5
06 24.06 С 2 15 км слаб. дождь н/о +20.3 +17.7 85 +24 +24 комфорт 1011.0 1007.4 0.0
07 24.06 В 3 17 км слаб. дождь н/о +19.3 +17.8 91 +22 +22 комфорт 1011.0 1007.4
08 24.06 В 3 18 км в посл. час дождь н/о +18.6 +17.3 92 +20 +20 1011.7 1008.1
09 24.06 СВ 3 20 км в посл. час дождь н/о +18.4 +16.9 91 +19 +19 1012.2 1008.6
10 24.06 СВ 2 17 км слаб. дождь н/о +18.1 +16.6 91 +19 +19 1013.4 1009.7
11 24.06 В 3 14 км в посл. час дождь н/о +17.9 +16.6 92 +18 +18 1013.3 1009.6
12 24.06 С 2 10 км в посл. час дождь н/о +17.6 +16.5 93 +18 +18 1014.0 1010.3 +20.6 1
13 24.06 СЗ 1 13 км н/о +18.1 +17.0 93 +20 +20 1014.8 1011.1
14 24.06 ЮЗ 1 12 км н/о +18.0 +16.9 93 +19 +19 1015.1 1011.4
15 24.06 Ю 1 10 км н/о +18.1 +16.8 92 +19 +19 1015.0 1011.3
16 24.06 С 1 9000 м дымка н/о +18.1 +17.0 93 +20 +20 1015.1 1011.4
17 24.06 С 1 9000 м дымка н/о +18.1 +17.1 94 +19 +19 1015.3 1011.6
18 24.06 С 1 6000 м слаб. дождь н/о +18.1 +17.5 96 +20 +20 1016.0 1012.3 0.0
19 24.06 З 1 5000 м в посл. час дождь н/о +17.8 +17.0 95 +19 +19 1016.0 1012.3
20 24.06 С 1 3500 м дымка н/о +17.7 +17.1 96 +19 +19 1017.0 1013.3
21 24.06 ЮЗ 1 4900 м дымка {дождь} н/о +18.4 +17.4 94 +20 +20 1017.7 1014.0
22 24.06 С 1 14 км н/о +19.6 +17.2 86 +23 +23 комфорт 1017.8 1014.2
23 24.06 С 3 11 км н/о +20.4 +17.6 84 +24 +24 комфорт 1017.8 1014.2
00 25.06 СЗ 2 18 км {дождь} н/о +23.1 +17.6 71 +28 +28 душно 1017.6 1014.0 +17.5 0.0
01 25.06 В 1 20 км н/о +23.7 +16.7 65 +27 +27 жарко 1017.6 1014.0
02 25.06 В 2 20 км н/о +23.7 +17.7 69 +28 +28 душно 1017.6 1014.0
03 25.06 ЮВ 2 20 км н/о +24.7 +17.9 66 +29 +29 душно 1017.4 1013.8
05 25.06 В 4 20 км н/о +25.9 +17.8 61 +30 +30 душно 1016.6 1013.0
06 25.06 В 5 20 км н/о +25.7 +17.1 59 +30 +30 душно 1017.1 1013.5
07 25.06 ЮВ 3 20 км н/о +25.1 +15.4 55 +28 +28 жарко 1016.9 1013.3
08 25.06 В 4 20 км н/о +23.8 +17.8 69 +28 +28 душно 1016.9 1013.3
09 25.06 ЮВ 4 20 км н/о +22.3 +17.0 72 +27 +27 душно 1017.7 1014.1
10 25.06 ЮВ 3 20 км н/о +21.4 +16.8 75 +25 +25 комфорт 1017.8 1014.2
11 25.06 ЮВ 2 20 км н/о +21.0 +18.0 83 +26 +26 душно 1018.1 1014.5

 

Местоположение метеостанции Мито (Япония): широта 36.38 долгота 140.46 высота над уровнем моря 31 м.

В архиве по умолчанию представлена погода в Мито за последнюю неделю. Архивные данные за месяц целиком и за предыдущие месяцы, начиная с января 2011 года, Вы можете получить, выбрав интересующий диапазон дат из раскрывающегося списка и нажав кнопку "Ввод!".


*Определитесь, кто Вы:
робот инопланетянин человек

Внимание! Время в таблицах - всемирное. Для получения местного времени необходимо прибавить поправку, которая равна 9 ч.

Смотрите также архив погоды в соседних городах и на ближайших метеорологических станциях:

Погода в Уцуномии (Япония) (57 км)
Погода в Онахаме (Япония) (75 км)
Погода в Тёси (Япония) (80 км)
Погода в Сиракаве (Япония) (86 км)
Погода в Тибе (Япония) (93 км)
Погода в Никко (Япония) (94 км)
Погода в Токио (Япония) (100 км)
Погода в Кумугае (Япония) (100 км)
Погода в Маебаши (Япония) (125 км)
Погода в Иокогаме (Япония) (128 км)

Пояснения к столбцам:

Ветер - указаны скорость ветра в м/с - средняя за 10 мин, порывы в срок и между сроками (в фигурных скобках) и направление, откуда дует ветер: С - северный, СВ - северо-восточный, В - восточный, ЮВ - юго-восточный, Ю - южный, ЮЗ - юго-западный, З - западный, СЗ - северо-западный.
Видимость - горизонтальная дальность видимости в метрах или километрах. При видимости от 1 до 10 км при отсутствии осадков обычно наблюдается дымка, при ухудшении видимости до 1 км и менее - туман. В сухую погоду видимость может ухудшаться дымом, пылью или мглою.
Явления - указаны атмосферные явления, наблюдавшиеся в срок или в последний час перед сроком; фигурными скобками обозначены явления, наблюдавшиеся между сроками (за 1-3 часа до срока); квадратными скобками обозначены град или гололедные отложения с указанием их диаметра в мм.
Облачность - указаны через наклонную черту общая и нижняя облачность в баллах и высота нижней границы облаков в метрах; квадратными скобками обозначены формы облаков: Ci - перистые, Cs - перисто-слоистые, Cc - перисто-кучевые, Ac - высококучевые, As - высокослоистые, Sc - слоисто-кучевые, Ns - слоисто-дождевые, Cu - кучевые, Cb - кучево-дождевые. Подробнее классификацию облаков см. в Атласе облаков (PDF).
T - Температура воздуха - температура, измеренная на высоте 2 м над землей.
Td - Температура точки росы - температура, при понижении до которой содержащийся в воздухе водяной пар достигнет насыщения.
f - Относительная влажность воздуха - влажноcть воздуха, измеренная на высоте 2 м над землей.
Te - Эффективная температура - температура, которую ощущает одетый по сезону человек в тени. Характеристика душности погоды. При расчете учитывается влияние влажности воздуха и скорости ветра на теплоощущения человека.
Tes - Эффективная температура на солнце - температура, которую ощущает человек, с поправкой на солнечный нагрев. Характеристика знойности погоды. Зависит от высоты солнца над горизонтом, облачности и скорости ветра. Ночью, в пасмурную погоду, а также при ветре 12 м/с и более поправка равна нулю.
P - Атмосферное давление - приведенное к уровню моря атмосферное давление.
Po - Атмосферное давление - измеренное на уровне метеостанции атмосферное давление.
Tmin - Минимальная температура - минимум температуры воздуха на высоте 2 м над землей.
Tmax - Максимальная температура - максимум температуры воздуха на высоте 2 м над землей.
R - Количество осадков - Количество выпавших осадков за период времени, мм. При наведении курсора мыши на число - период времени, за который выпало указанное количество осадков.
R24 - Количество осадков - Количество выпавших осадков за 24 часа, мм.
S - Снежный покров - Высота снежного покрова, см. При наведении курсора мыши на число - состояние снежного покрова и степень покрытия местности в баллах.